Regional Weather Roundup
Issued by NWS Cleveland, OH

Home | Current Version | Previous Version | Graphics & Text | Print | Product List | Glossary On
Versions: 1 2 3 4 5 6 7 8 9 10 11 12 13 14 15 16 17 18 19 20 21 22 23 24 25 26 27 28 29 30 31 32 33 34 35 36 37 38 39 40 41 42 43 44 45 46 47 48 49 50
000
ASUS41 KCLE 312102
RWRCLE
OHIO REGIONAL WEATHER ROUNDUP
NATIONAL WEATHER SERVICE CLEVELAND, OH
500 PM EDT WED AUG 31 2016

NOTE: "FAIR" INDICATES FEW OR NO CLOUDS BELOW 12,000 FEET WITH NO
SIGNIFICANT WEATHER AND/OR OBSTRUCTIONS TO VISIBILITY.

OHZ001>008-015>018-024>027-034-035-043-044-312200-
   NORTHWEST OHIO

CITY           SKY/WX    TMP DP  RH WIND       PRES   REMARKS
DEFIANCE       LGT RAIN  77  67  71 N12       29.96S
FINDLAY        MOSUNNY   83  67  58 NW13      29.93F
TOLEDO EXPRESS CLOUDY    78  69  73 N10       29.95S
TOLEDO EXEC    CLOUDY    79  69  71 N12       29.96S
LIMA           CLOUDY    79  71  76 N9        29.95F
$$

OHZ009>014-019>023-028>033-038-089-312200-
   NORTHEAST OHIO

CITY           SKY/WX    TMP DP  RH WIND       PRES   REMARKS
CLE-HOPKINS    PTSUNNY   80  68  66 N14       29.95S
CLE-LAKEFRONT  PTSUNNY   78  70  76 N9        29.92F
CUY CO. ARPT   PTSUNNY   77  72  83 NW8       29.95S
LORAIN-ELYRIA  PTSUNNY   77  69  76 N13       29.95R
ASHTABULA      CLOUDY    73  71  93 CALM      29.94F
AKRON-CANTON   CLOUDY    72  67  84 E3        29.95R
WOOSTER        PTSUNNY   75  70  84 SE3       29.95F
MANSFIELD      CLOUDY    79  68  69 N13       29.95S
YOUNGSTOWN     CLOUDY    70  68  93 SE5       29.95F
$$

OHZ042-051>053-060>062-070>072-077>081-312200-
  SOUTHWEST OHIO

CITY           SKY/WX    TMP DP  RH WIND       PRES   REMARKS
CINC-COVINGTON PTSUNNY   80  69  69 N17       29.95R
CINC-LUNKEN    PTSUNNY   83  70  64 N17G23    29.93R
HAMILTON       CLOUDY    79  72  79 W10       29.95S
DAYTON         CLOUDY    82  67  60 N13       29.96S
WRIGHT-PAT AFB PTSUNNY   79  73  83 SW6       29.94F
DAYTON GENERAL LGT RAIN  74  67  78 SW5       29.95S
WILMINGTON     CLOUDY    76  69  79 W3        29.95F
$$

OHZ036-037-039>041-045>050-054>059-063>069-073>076-082>088-312200-
  CENTRAL AND SOUTHEAST OHIO

CITY           SKY/WX    TMP DP  RH WIND       PRES   REMARKS
COLUMBUS       CLOUDY    74  70  87 SE9       29.94R
OSU AIRPORT    PTSUNNY   79  70  74 NW10      29.94S
BOLTON FIELD   MOSUNNY   79  72  78 NW6       29.95S
RICKENBACK AFB PTSUNNY   76  72  89 NW5       29.93S
NEWARK         LGT RAIN  75  69  81 NW8       29.95R
MARION         PTSUNNY   81  68  64 N13       29.94S
LANCASTER      CLOUDY    76  73  91 NW3       29.93F
ZANESVILLE     CLOUDY    77  72  84 S5        29.93S
NEW PHILLY     LGT RAIN  73  70  90 SE6       29.95R FOG
$$




USA.gov is the U.S. government's official web portal to all federal, state and local government web resources and services.